Year,Month,Day,Hour,Minute,Value (Times are PST for temperature in C)
2015,07,20,00,00,23.70
2015,07,20,00,01,23.70
2015,07,20,00,02,23.70
2015,07,20,00,03,23.60
2015,07,20,00,04,23.60
2015,07,20,00,05,23.60
2015,07,20,00,06,23.50
2015,07,20,00,07,23.50
2015,07,20,00,08,23.40
2015,07,20,00,09,23.40
2015,07,20,00,10,23.40
2015,07,20,00,11,23.40
2015,07,20,00,12,23.30
2015,07,20,00,13,23.30
2015,07,20,00,14,23.30
2015,07,20,00,15,23.30
2015,07,20,00,16,23.20
2015,07,20,00,17,23.20
2015,07,20,00,18,23.20
2015,07,20,00,19,23.10
2015,07,20,00,20,23.10
2015,07,20,00,21,23.10
2015,07,20,00,22,23.00
2015,07,20,00,23,23.00
2015,07,20,00,24,22.90
2015,07,20,00,25,22.80
2015,07,20,00,26,22.80
2015,07,20,00,27,22.70
2015,07,20,00,28,22.70
2015,07,20,00,29,22.60
2015,07,20,00,30,22.60
2015,07,20,00,31,22.50
2015,07,20,00,32,22.40
2015,07,20,00,33,22.40
2015,07,20,00,34,22.30
2015,07,20,00,35,22.20
2015,07,20,00,36,22.20
2015,07,20,00,37,22.20
2015,07,20,00,38,22.10
2015,07,20,00,39,22.10
2015,07,20,00,40,22.10
2015,07,20,00,41,22.00
2015,07,20,00,42,22.00
2015,07,20,00,43,21.90
2015,07,20,00,44,21.90
2015,07,20,00,45,21.90
2015,07,20,00,46,21.80
2015,07,20,00,47,21.80
2015,07,20,00,48,21.80
2015,07,20,00,49,21.70
2015,07,20,00,50,21.70
2015,07,20,00,51,21.70
2015,07,20,00,52,21.60
2015,07,20,00,53,21.60
2015,07,20,00,54,21.60
2015,07,20,00,55,21.50
2015,07,20,00,56,21.40
2015,07,20,00,57,21.40
2015,07,20,00,58,21.40
2015,07,20,00,59,21.30
2015,07,20,01,00,21.30
2015,07,20,01,01,21.30
2015,07,20,01,02,21.30
2015,07,20,01,03,21.30
2015,07,20,01,04,21.30
2015,07,20,01,05,21.30
2015,07,20,01,06,21.30
2015,07,20,01,07,21.30
2015,07,20,01,08,21.30
2015,07,20,01,09,21.30
2015,07,20,01,10,21.30
2015,07,20,01,11,21.30
2015,07,20,01,12,21.30
2015,07,20,01,13,21.30
2015,07,20,01,14,21.30
2015,07,20,01,15,21.30
2015,07,20,01,16,21.30
2015,07,20,01,17,21.30
2015,07,20,01,18,21.30
2015,07,20,01,19,21.20
2015,07,20,01,20,21.20
2015,07,20,01,21,21.20
2015,07,20,01,22,21.20
2015,07,20,01,23,21.20
2015,07,20,01,24,21.10
2015,07,20,01,25,21.10
2015,07,20,01,26,21.10
2015,07,20,01,27,21.10
2015,07,20,01,28,21.10
2015,07,20,01,29,21.00
2015,07,20,01,30,21.00
2015,07,20,01,31,21.00
2015,07,20,01,32,21.00
2015,07,20,01,33,20.90
2015,07,20,01,34,20.90
2015,07,20,01,35,20.90
2015,07,20,01,36,20.90
2015,07,20,01,37,20.80
2015,07,20,01,38,20.80
2015,07,20,01,39,20.80
2015,07,20,01,40,20.80
2015,07,20,01,41,20.80
2015,07,20,01,42,20.80
2015,07,20,01,43,20.80
2015,07,20,01,44,20.70
2015,07,20,01,45,20.70
2015,07,20,01,46,20.70
2015,07,20,01,47,20.70
2015,07,20,01,48,20.70
2015,07,20,01,49,20.60
2015,07,20,01,50,20.60
2015,07,20,01,51,20.60
2015,07,20,01,52,20.60
2015,07,20,01,53,20.60
2015,07,20,01,54,20.60
2015,07,20,01,55,20.50
2015,07,20,01,56,20.50
2015,07,20,01,57,20.50
2015,07,20,01,58,20.50
2015,07,20,01,59,20.40
2015,07,20,02,00,20.40
2015,07,20,02,01,20.40
2015,07,20,02,02,20.40
2015,07,20,02,03,20.30
2015,07,20,02,04,20.30
2015,07,20,02,05,20.30
2015,07,20,02,06,20.30
2015,07,20,02,07,20.30
2015,07,20,02,08,20.30
2015,07,20,02,09,20.30
2015,07,20,02,10,20.20
2015,07,20,02,11,20.20
2015,07,20,02,12,20.20
2015,07,20,02,13,20.20
2015,07,20,02,14,20.20
2015,07,20,02,15,20.20
2015,07,20,02,16,20.10
2015,07,20,02,17,20.10
2015,07,20,02,18,20.10
2015,07,20,02,19,20.10
2015,07,20,02,20,20.10
2015,07,20,02,21,20.10
2015,07,20,02,22,20.10
2015,07,20,02,23,20.00
2015,07,20,02,24,20.00
2015,07,20,02,25,19.90
2015,07,20,02,26,19.90
2015,07,20,02,27,19.90
2015,07,20,02,28,19.90
2015,07,20,02,29,19.90
2015,07,20,02,30,19.90
2015,07,20,02,31,19.90
2015,07,20,02,32,19.80
2015,07,20,02,33,19.80
2015,07,20,02,34,19.80
2015,07,20,02,35,19.80
2015,07,20,02,36,19.80
2015,07,20,02,37,19.80
2015,07,20,02,38,19.80
2015,07,20,02,39,19.80
2015,07,20,02,40,19.70
2015,07,20,02,41,19.70
2015,07,20,02,42,19.70
2015,07,20,02,43,19.70
2015,07,20,02,44,19.70
2015,07,20,02,45,19.70
2015,07,20,02,46,19.70
2015,07,20,02,47,19.70
2015,07,20,02,48,19.60
2015,07,20,02,49,19.60
2015,07,20,02,50,19.60
2015,07,20,02,51,19.60
2015,07,20,02,52,19.60
2015,07,20,02,53,19.60
2015,07,20,02,54,19.60
2015,07,20,02,55,19.60
2015,07,20,02,56,19.50
2015,07,20,02,57,19.60
2015,07,20,02,58,19.60
2015,07,20,02,59,19.60
2015,07,20,03,00,19.60
2015,07,20,03,01,19.60
2015,07,20,03,02,19.50
2015,07,20,03,03,19.50
2015,07,20,03,04,19.50
2015,07,20,03,05,19.50
2015,07,20,03,06,19.50
2015,07,20,03,07,19.40
2015,07,20,03,08,19.40
2015,07,20,03,09,19.40
2015,07,20,03,10,19.40
2015,07,20,03,11,19.40
2015,07,20,03,12,19.40
2015,07,20,03,13,19.30
2015,07,20,03,14,19.30
2015,07,20,03,15,19.30
2015,07,20,03,16,19.30
2015,07,20,03,17,19.30
2015,07,20,03,18,19.30
2015,07,20,03,19,19.30
2015,07,20,03,20,19.20
2015,07,20,03,21,19.20
2015,07,20,03,22,19.20
2015,07,20,03,23,19.20
2015,07,20,03,24,19.20
2015,07,20,03,25,19.20
2015,07,20,03,26,19.20
2015,07,20,03,27,19.20
2015,07,20,03,28,19.20
2015,07,20,03,29,19.20
2015,07,20,03,30,19.20
2015,07,20,03,31,19.20
2015,07,20,03,32,19.20
2015,07,20,03,33,19.20
2015,07,20,03,34,19.20
2015,07,20,03,35,19.20
2015,07,20,03,36,19.20
2015,07,20,03,37,19.20
2015,07,20,03,38,19.20
2015,07,20,03,39,19.20
2015,07,20,03,40,19.20
2015,07,20,03,41,19.20
2015,07,20,03,42,19.30
2015,07,20,03,43,19.30
2015,07,20,03,44,19.30
2015,07,20,03,45,19.30
2015,07,20,03,46,19.30
2015,07,20,03,47,19.40
2015,07,20,03,48,19.40
2015,07,20,03,49,19.40
2015,07,20,03,50,19.40
2015,07,20,03,51,19.40
2015,07,20,03,52,19.40
2015,07,20,03,53,19.40
2015,07,20,03,54,19.40
2015,07,20,03,55,19.40
2015,07,20,03,56,19.40
2015,07,20,03,57,19.30
2015,07,20,03,58,19.30
2015,07,20,03,59,19.30
2015,07,20,04,00,19.30
2015,07,20,04,01,19.20
2015,07,20,04,02,19.20
2015,07,20,04,03,19.20
2015,07,20,04,04,19.20
2015,07,20,04,05,19.20
2015,07,20,04,06,19.20
2015,07,20,04,07,19.20
2015,07,20,04,08,19.30
2015,07,20,04,09,19.30
2015,07,20,04,10,19.30
2015,07,20,04,11,19.30
2015,07,20,04,12,19.30
2015,07,20,04,13,19.30
2015,07,20,04,14,19.30
2015,07,20,04,15,19.30
2015,07,20,04,16,19.30
2015,07,20,04,17,19.30
2015,07,20,04,18,19.30
2015,07,20,04,19,19.30
2015,07,20,04,20,19.30
2015,07,20,04,21,19.20
2015,07,20,04,22,19.20
2015,07,20,04,23,19.20
2015,07,20,04,24,19.10
2015,07,20,04,25,19.10
2015,07,20,04,26,19.00
2015,07,20,04,27,18.90
2015,07,20,04,28,18.90
2015,07,20,04,29,18.80
2015,07,20,04,30,18.80
2015,07,20,04,31,18.80
2015,07,20,04,32,18.70
2015,07,20,04,33,18.70
2015,07,20,04,34,18.70
2015,07,20,04,35,18.60
2015,07,20,04,36,18.60
2015,07,20,04,37,18.60
2015,07,20,04,38,18.60
2015,07,20,04,39,18.50
2015,07,20,04,40,18.50
2015,07,20,04,41,18.50
2015,07,20,04,42,18.50
2015,07,20,04,43,18.50
2015,07,20,04,44,18.50
2015,07,20,04,45,18.50
2015,07,20,04,46,18.50
2015,07,20,04,47,18.50
2015,07,20,04,48,18.50
2015,07,20,04,49,18.50
2015,07,20,04,50,18.60
2015,07,20,04,51,18.60
2015,07,20,04,52,18.60
2015,07,20,04,53,18.60
2015,07,20,04,54,18.60
2015,07,20,04,55,18.60
2015,07,20,04,56,18.60
2015,07,20,04,57,18.60
2015,07,20,04,58,18.60
2015,07,20,04,59,18.60
2015,07,20,05,00,18.60
2015,07,20,05,01,18.60
2015,07,20,05,02,18.50
2015,07,20,05,03,18.50
2015,07,20,05,04,18.50
2015,07,20,05,05,18.50
2015,07,20,05,06,18.50
2015,07,20,05,07,18.40
2015,07,20,05,08,18.40
2015,07,20,05,09,18.40
2015,07,20,05,10,18.40
2015,07,20,05,11,18.40
2015,07,20,05,12,18.40
2015,07,20,05,13,18.40
2015,07,20,05,14,18.30
2015,07,20,05,15,18.30
2015,07,20,05,16,18.30
2015,07,20,05,17,18.30
2015,07,20,05,18,18.30
2015,07,20,05,19,18.30
2015,07,20,05,20,18.30
2015,07,20,05,21,18.30
2015,07,20,05,22,18.30
2015,07,20,05,23,18.30
2015,07,20,05,24,18.30
2015,07,20,05,25,18.30
2015,07,20,05,26,18.30
2015,07,20,05,27,18.30
2015,07,20,05,28,18.30
2015,07,20,05,29,18.30
2015,07,20,05,30,18.30
2015,07,20,05,31,18.30
2015,07,20,05,32,18.30
2015,07,20,05,33,18.30
2015,07,20,05,34,18.30
2015,07,20,05,35,18.30
2015,07,20,05,36,18.20
2015,07,20,05,37,18.20
2015,07,20,05,38,18.20
2015,07,20,05,39,18.20
2015,07,20,05,40,18.20
2015,07,20,05,41,18.20
2015,07,20,05,42,18.20
2015,07,20,05,43,18.20
2015,07,20,05,44,18.20
2015,07,20,05,45,18.20
2015,07,20,05,46,18.20
2015,07,20,05,47,18.20
2015,07,20,05,48,18.20
2015,07,20,05,49,18.20
2015,07,20,05,50,18.20
2015,07,20,05,51,18.20
2015,07,20,05,52,18.20
2015,07,20,05,53,18.20
2015,07,20,05,54,18.20
2015,07,20,05,55,18.20
2015,07,20,05,56,18.10
2015,07,20,05,57,18.10
2015,07,20,05,58,18.10
2015,07,20,05,59,18.10
2015,07,20,06,00,18.10
2015,07,20,06,01,18.10
2015,07,20,06,02,18.10
2015,07,20,06,03,18.10
2015,07,20,06,04,18.20
2015,07,20,06,05,18.20
2015,07,20,06,06,18.20
2015,07,20,06,07,18.20
2015,07,20,06,08,18.20
2015,07,20,06,09,18.20
2015,07,20,06,10,18.20
2015,07,20,06,11,18.20
2015,07,20,06,12,18.20
2015,07,20,06,13,18.30
2015,07,20,06,14,18.30
2015,07,20,06,15,18.30
2015,07,20,06,16,18.30
2015,07,20,06,17,18.30
2015,07,20,06,18,18.30
2015,07,20,06,19,18.30
2015,07,20,06,20,18.30
2015,07,20,06,21,18.40
2015,07,20,06,22,18.40
2015,07,20,06,23,18.40
2015,07,20,06,24,18.40
2015,07,20,06,25,18.40
2015,07,20,06,26,18.40
2015,07,20,06,27,18.40
2015,07,20,06,28,18.40
2015,07,20,06,29,18.50
2015,07,20,06,30,18.50
2015,07,20,06,31,18.50
2015,07,20,06,32,18.50
2015,07,20,06,33,18.50
2015,07,20,06,34,18.60
2015,07,20,06,35,18.60
2015,07,20,06,36,18.60
2015,07,20,06,37,18.60
2015,07,20,06,38,18.60
2015,07,20,06,39,18.60
2015,07,20,06,40,18.70
2015,07,20,06,41,18.70
2015,07,20,06,42,18.70
2015,07,20,06,43,18.70
2015,07,20,06,44,18.70
2015,07,20,06,45,18.70
2015,07,20,06,46,18.70
2015,07,20,06,47,18.70
2015,07,20,06,48,18.70
2015,07,20,06,49,18.70
2015,07,20,06,50,18.70
2015,07,20,06,51,18.70
2015,07,20,06,52,18.70
2015,07,20,06,53,18.70
2015,07,20,06,54,18.70
2015,07,20,06,55,18.70
2015,07,20,06,56,18.70
2015,07,20,06,57,18.70
2015,07,20,06,58,18.70
2015,07,20,06,59,18.70
2015,07,20,07,00,18.70
2015,07,20,07,01,18.70
2015,07,20,07,02,18.70
2015,07,20,07,03,18.70
2015,07,20,07,04,18.70
2015,07,20,07,05,18.80
2015,07,20,07,06,18.80
2015,07,20,07,07,18.80
2015,07,20,07,08,18.70
2015,07,20,07,09,18.70
2015,07,20,07,10,18.70
2015,07,20,07,11,18.70
2015,07,20,07,12,18.70
2015,07,20,07,13,18.70
2015,07,20,07,14,18.70
2015,07,20,07,15,18.80
2015,07,20,07,16,18.80
2015,07,20,07,17,18.80
2015,07,20,07,18,18.80
2015,07,20,07,19,18.80
2015,07,20,07,20,18.80
2015,07,20,07,21,18.80
2015,07,20,07,22,18.80
2015,07,20,07,23,18.80
2015,07,20,07,24,18.90
2015,07,20,07,25,18.90
2015,07,20,07,26,18.90
2015,07,20,07,27,18.90
2015,07,20,07,28,18.90
2015,07,20,07,29,18.90
2015,07,20,07,30,18.90
2015,07,20,07,31,18.90
2015,07,20,07,32,18.90
2015,07,20,07,33,19.00
2015,07,20,07,34,19.00
2015,07,20,07,35,19.00
2015,07,20,07,36,19.10
2015,07,20,07,37,19.10
2015,07,20,07,38,19.10
2015,07,20,07,39,19.10
2015,07,20,07,40,19.10
2015,07,20,07,41,19.10
2015,07,20,07,42,19.10
2015,07,20,07,43,19.10
2015,07,20,07,44,19.20
2015,07,20,07,45,19.20
2015,07,20,07,46,19.20
2015,07,20,07,47,19.20
2015,07,20,07,48,19.20
2015,07,20,07,49,19.20
2015,07,20,07,50,19.20
2015,07,20,07,51,19.20
2015,07,20,07,52,19.20
2015,07,20,07,53,19.20
2015,07,20,07,54,19.20
2015,07,20,07,55,19.20
2015,07,20,07,56,19.30
2015,07,20,07,57,19.30
2015,07,20,07,58,19.30
2015,07,20,07,59,19.30
2015,07,20,08,00,19.30
2015,07,20,08,01,19.30
2015,07,20,08,02,19.30
2015,07,20,08,03,19.30
2015,07,20,08,04,19.40
2015,07,20,08,05,19.40
2015,07,20,08,06,19.40
2015,07,20,08,07,19.40
2015,07,20,08,08,19.40
2015,07,20,08,09,19.40
2015,07,20,08,10,19.40
2015,07,20,08,11,19.50
2015,07,20,08,12,19.50
2015,07,20,08,13,19.60
2015,07,20,08,14,19.60
2015,07,20,08,15,19.60
2015,07,20,08,16,19.60
2015,07,20,08,17,19.60
2015,07,20,08,18,19.60
2015,07,20,08,19,19.60
2015,07,20,08,20,19.60
2015,07,20,08,21,19.70
2015,07,20,08,22,19.70
2015,07,20,08,23,19.70
2015,07,20,08,24,19.70
2015,07,20,08,25,19.70
2015,07,20,08,26,19.70
2015,07,20,08,27,19.80
2015,07,20,08,28,19.80
2015,07,20,08,29,19.80
2015,07,20,08,30,19.90
2015,07,20,08,31,19.90
2015,07,20,08,32,19.90
2015,07,20,08,33,20.00
2015,07,20,08,34,20.00
2015,07,20,08,35,20.10
2015,07,20,08,36,20.10
2015,07,20,08,37,20.10
2015,07,20,08,38,20.10
2015,07,20,08,39,20.00
2015,07,20,08,40,20.10
2015,07,20,08,41,20.10
2015,07,20,08,42,20.10
2015,07,20,08,43,20.10
2015,07,20,08,44,20.10
2015,07,20,08,45,20.20
2015,07,20,08,46,20.20
2015,07,20,08,47,20.30
2015,07,20,08,48,20.30
2015,07,20,08,49,20.40
2015,07,20,08,50,20.40
2015,07,20,08,51,20.40
2015,07,20,08,52,20.30
2015,07,20,08,53,20.30
2015,07,20,08,54,20.40
2015,07,20,08,55,20.50
2015,07,20,08,56,20.50
2015,07,20,08,57,20.50
2015,07,20,08,58,20.50
2015,07,20,08,59,20.50
2015,07,20,09,00,20.40
2015,07,20,09,01,20.50
2015,07,20,09,02,20.50
2015,07,20,09,03,20.60
2015,07,20,09,04,20.60
2015,07,20,09,05,20.60
2015,07,20,09,06,20.70
2015,07,20,09,07,20.70
2015,07,20,09,08,20.70
2015,07,20,09,09,20.70
2015,07,20,09,10,20.70
2015,07,20,09,11,20.70
2015,07,20,09,12,20.70
2015,07,20,09,13,20.70
2015,07,20,09,14,20.70
2015,07,20,09,15,20.70
2015,07,20,09,16,20.80
2015,07,20,09,17,20.90
2015,07,20,09,18,20.90
2015,07,20,09,19,21.00
2015,07,20,09,20,21.00
2015,07,20,09,21,21.00
2015,07,20,09,22,21.00
2015,07,20,09,23,21.00
2015,07,20,09,24,21.00
2015,07,20,09,25,21.00
2015,07,20,09,26,21.00
2015,07,20,09,27,21.00
2015,07,20,09,28,21.00
2015,07,20,09,29,21.00
2015,07,20,09,30,20.90
2015,07,20,09,31,20.90
2015,07,20,09,32,20.90
2015,07,20,09,33,20.90
2015,07,20,09,34,20.90
2015,07,20,09,35,21.00
2015,07,20,09,36,20.90
2015,07,20,09,37,21.00
2015,07,20,09,38,21.00
2015,07,20,09,39,21.10
2015,07,20,09,40,21.10
2015,07,20,09,41,21.20
2015,07,20,09,42,21.20
2015,07,20,09,43,21.20
2015,07,20,09,44,21.20
2015,07,20,09,45,21.20
2015,07,20,09,46,21.20
2015,07,20,09,47,21.20
2015,07,20,09,48,21.20
2015,07,20,09,49,21.20
2015,07,20,09,50,21.30
2015,07,20,09,51,21.30
2015,07,20,09,52,21.40
2015,07,20,09,53,21.40
2015,07,20,09,54,21.50
2015,07,20,09,55,21.50
2015,07,20,09,56,21.50
2015,07,20,09,57,21.50
2015,07,20,09,58,21.60
2015,07,20,09,59,21.60
2015,07,20,10,00,21.70
2015,07,20,10,01,21.80
2015,07,20,10,02,21.80
2015,07,20,10,03,21.90
2015,07,20,10,04,22.00
2015,07,20,10,05,22.00
2015,07,20,10,06,22.10
2015,07,20,10,07,22.10
2015,07,20,10,08,22.10
2015,07,20,10,09,22.10
2015,07,20,10,10,22.10
2015,07,20,10,11,22.10
2015,07,20,10,12,22.20
2015,07,20,10,13,22.20
2015,07,20,10,14,22.20
2015,07,20,10,15,22.20
2015,07,20,10,16,22.30
2015,07,20,10,17,22.30
2015,07,20,10,18,22.40
2015,07,20,10,19,22.40
2015,07,20,10,20,22.40
2015,07,20,10,21,22.40
2015,07,20,10,22,22.40
2015,07,20,10,23,22.40
2015,07,20,10,24,22.30
2015,07,20,10,25,22.40
2015,07,20,10,26,22.40
2015,07,20,10,27,22.40
2015,07,20,10,28,22.40
2015,07,20,10,29,22.40
2015,07,20,10,30,22.40
2015,07,20,10,31,22.40
2015,07,20,10,32,22.50
2015,07,20,10,33,22.60
2015,07,20,10,34,22.60
2015,07,20,10,35,22.70
2015,07,20,10,36,22.70
2015,07,20,10,37,22.70
2015,07,20,10,38,22.70
2015,07,20,10,39,22.70
2015,07,20,10,40,22.70
2015,07,20,10,41,22.70
2015,07,20,10,42,22.70
2015,07,20,10,43,22.70
2015,07,20,10,44,22.70
2015,07,20,10,45,22.80
2015,07,20,10,46,22.90
2015,07,20,10,47,22.90
2015,07,20,10,48,23.10
2015,07,20,10,49,23.20
2015,07,20,10,50,23.30
2015,07,20,10,51,23.30
2015,07,20,10,52,23.40
2015,07,20,10,53,23.40
2015,07,20,10,54,23.30
2015,07,20,10,55,23.20
2015,07,20,10,56,23.20
2015,07,20,10,57,23.20
2015,07,20,10,58,23.20
2015,07,20,10,59,23.20
2015,07,20,11,00,23.20
2015,07,20,11,01,23.20
2015,07,20,11,02,23.30
2015,07,20,11,03,23.40
2015,07,20,11,04,23.50
2015,07,20,11,05,23.60
2015,07,20,11,06,23.70
2015,07,20,11,07,23.70
2015,07,20,11,08,23.80
2015,07,20,11,09,23.80
2015,07,20,11,10,23.80
2015,07,20,11,11,23.90
2015,07,20,11,12,23.80
2015,07,20,11,13,23.80
2015,07,20,11,14,23.70
2015,07,20,11,15,23.70
2015,07,20,11,16,23.80
2015,07,20,11,17,23.80
2015,07,20,11,18,23.90
2015,07,20,11,19,23.90
2015,07,20,11,20,24.00
2015,07,20,11,21,24.10
2015,07,20,11,22,24.00
2015,07,20,11,23,24.00
2015,07,20,11,24,24.00
2015,07,20,11,25,24.00
2015,07,20,11,26,24.00
2015,07,20,11,27,24.00
2015,07,20,11,28,24.10
2015,07,20,11,29,24.20
2015,07,20,11,30,24.20
2015,07,20,11,31,24.20
2015,07,20,11,32,24.20
2015,07,20,11,33,24.30
2015,07,20,11,34,24.40
2015,07,20,11,35,24.60
2015,07,20,11,36,24.50
2015,07,20,11,37,24.40
2015,07,20,11,38,24.30
2015,07,20,11,39,24.30
2015,07,20,11,40,24.20
2015,07,20,11,41,24.20
2015,07,20,11,42,24.10
2015,07,20,11,43,24.00
2015,07,20,11,44,23.90
2015,07,20,11,45,23.80
2015,07,20,11,46,23.80
2015,07,20,11,47,23.80
2015,07,20,11,48,23.80
2015,07,20,11,49,23.80
2015,07,20,11,50,23.80
2015,07,20,11,51,23.80
2015,07,20,11,52,23.90
2015,07,20,11,53,24.00
2015,07,20,11,54,24.10
2015,07,20,11,55,24.10
2015,07,20,11,56,24.10
2015,07,20,11,57,24.10
2015,07,20,11,58,24.10
2015,07,20,11,59,24.20
2015,07,20,12,00,24.20
2015,07,20,12,01,24.20
2015,07,20,12,02,24.20
2015,07,20,12,03,24.20
2015,07,20,12,04,24.10
2015,07,20,12,05,24.10
2015,07,20,12,06,24.10
2015,07,20,12,07,24.10
2015,07,20,12,08,24.20
2015,07,20,12,09,24.20
2015,07,20,12,10,24.20
2015,07,20,12,11,24.20
2015,07,20,12,12,24.20
2015,07,20,12,13,24.10
2015,07,20,12,14,24.10
2015,07,20,12,15,24.10
2015,07,20,12,16,24.10
2015,07,20,12,17,24.10
2015,07,20,12,18,24.20
2015,07,20,12,19,24.20
2015,07,20,12,20,24.30
2015,07,20,12,21,24.30
2015,07,20,12,22,24.30
2015,07,20,12,23,24.30
2015,07,20,12,24,24.20
2015,07,20,12,25,24.00
2015,07,20,12,26,24.00
2015,07,20,12,27,24.00
2015,07,20,12,28,24.00
2015,07,20,12,29,24.10
2015,07,20,12,30,24.10
2015,07,20,12,31,24.20
2015,07,20,12,32,24.20
2015,07,20,12,33,24.30
2015,07,20,12,34,24.20
2015,07,20,12,35,24.20
2015,07,20,12,36,24.30
2015,07,20,12,37,24.30
2015,07,20,12,38,24.40
2015,07,20,12,39,24.40
2015,07,20,12,40,24.30
2015,07,20,12,41,24.40
2015,07,20,12,42,24.40
2015,07,20,12,43,24.40
2015,07,20,12,44,24.40
2015,07,20,12,45,24.40
2015,07,20,12,46,24.40
2015,07,20,12,47,24.50
2015,07,20,12,48,24.60
2015,07,20,12,49,24.60
2015,07,20,12,50,24.60
2015,07,20,12,51,24.60
2015,07,20,12,52,24.50
2015,07,20,12,53,24.40
2015,07,20,12,54,24.50
2015,07,20,12,55,24.70
2015,07,20,12,56,24.80
2015,07,20,12,57,24.90
2015,07,20,12,58,24.80
2015,07,20,12,59,24.80
2015,07,20,13,00,24.70
2015,07,20,13,01,24.60
2015,07,20,13,02,24.60
2015,07,20,13,03,24.50
2015,07,20,13,04,24.40
2015,07,20,13,05,24.40
2015,07,20,13,06,24.40
2015,07,20,13,07,24.40
2015,07,20,13,08,24.40
2015,07,20,13,09,24.40
2015,07,20,13,10,24.40
2015,07,20,13,11,24.60
2015,07,20,13,12,24.80
2015,07,20,13,13,25.00
2015,07,20,13,14,25.10
2015,07,20,13,15,25.20
2015,07,20,13,16,25.30
2015,07,20,13,17,25.40
2015,07,20,13,18,25.50
2015,07,20,13,19,25.60
2015,07,20,13,20,25.70
2015,07,20,13,21,25.80
2015,07,20,13,22,25.90
2015,07,20,13,23,25.90
2015,07,20,13,24,25.90
2015,07,20,13,25,25.90
2015,07,20,13,26,25.90
2015,07,20,13,27,25.80
2015,07,20,13,28,25.80
2015,07,20,13,29,25.80
2015,07,20,13,30,25.90
2015,07,20,13,31,26.00
2015,07,20,13,32,26.00
2015,07,20,13,33,25.90
2015,07,20,13,34,25.70
2015,07,20,13,35,25.50
2015,07,20,13,36,25.50
2015,07,20,13,37,25.50
2015,07,20,13,38,25.60
2015,07,20,13,39,25.70
2015,07,20,13,40,25.80
2015,07,20,13,41,25.80
2015,07,20,13,42,25.80
2015,07,20,13,43,25.70
2015,07,20,13,44,25.40
2015,07,20,13,45,25.30
2015,07,20,13,46,25.30
2015,07,20,13,47,25.30
2015,07,20,13,48,25.40
2015,07,20,13,49,25.50
2015,07,20,13,50,25.70
2015,07,20,13,51,26.00
2015,07,20,13,52,26.20
2015,07,20,13,53,26.30
2015,07,20,13,54,26.40
2015,07,20,13,55,26.50
2015,07,20,13,56,26.60
2015,07,20,13,57,26.80
2015,07,20,13,58,26.90
2015,07,20,13,59,27.00
2015,07,20,14,00,27.10
2015,07,20,14,01,27.10
2015,07,20,14,02,27.10
2015,07,20,14,03,27.20
2015,07,20,14,04,27.20
2015,07,20,14,05,27.10
2015,07,20,14,06,27.20
2015,07,20,14,07,27.20
2015,07,20,14,08,27.30
2015,07,20,14,09,27.30
2015,07,20,14,10,27.30
2015,07,20,14,11,27.20
2015,07,20,14,12,27.20
2015,07,20,14,13,27.20
2015,07,20,14,14,27.20
2015,07,20,14,15,27.20
2015,07,20,14,16,27.20
2015,07,20,14,17,27.20
2015,07,20,14,18,27.20
2015,07,20,14,19,27.20
2015,07,20,14,20,27.20
2015,07,20,14,21,27.20
2015,07,20,14,22,27.20
2015,07,20,14,23,27.30
2015,07,20,14,24,27.30
2015,07,20,14,25,27.30
2015,07,20,14,26,27.30
2015,07,20,14,27,27.40
2015,07,20,14,28,27.40
2015,07,20,14,29,27.40
2015,07,20,14,30,27.30
2015,07,20,14,31,27.30
2015,07,20,14,32,27.20
2015,07,20,14,33,27.30
2015,07,20,14,34,27.20
2015,07,20,14,35,27.10
2015,07,20,14,36,27.10
2015,07,20,14,37,27.00
2015,07,20,14,38,26.90
2015,07,20,14,39,26.80
2015,07,20,14,40,26.80
2015,07,20,14,41,26.80
2015,07,20,14,42,26.80
2015,07,20,14,43,26.90
2015,07,20,14,44,27.00
2015,07,20,14,45,27.00
2015,07,20,14,46,27.10
2015,07,20,14,47,27.00
2015,07,20,14,48,26.90
2015,07,20,14,49,26.90
2015,07,20,14,50,27.00
2015,07,20,14,51,27.00
2015,07,20,14,52,27.10
2015,07,20,14,53,27.10
2015,07,20,14,54,27.10
2015,07,20,14,55,27.10
2015,07,20,14,56,27.10
2015,07,20,14,57,27.00
2015,07,20,14,58,26.90
2015,07,20,14,59,26.80
2015,07,20,15,00,26.80
2015,07,20,15,01,26.80
2015,07,20,15,02,26.80
2015,07,20,15,03,26.80
2015,07,20,15,04,26.70
2015,07,20,15,05,26.70
2015,07,20,15,06,26.70
2015,07,20,15,07,26.70
2015,07,20,15,08,26.60
2015,07,20,15,09,26.60
2015,07,20,15,10,26.60
2015,07,20,15,11,26.60
2015,07,20,15,12,26.70
2015,07,20,15,13,26.70
2015,07,20,15,14,26.70
2015,07,20,15,15,26.80
2015,07,20,15,16,26.80
2015,07,20,15,17,26.80
2015,07,20,15,18,26.70
2015,07,20,15,19,26.70
2015,07,20,15,20,26.60
2015,07,20,15,21,26.50
2015,07,20,15,22,26.50
2015,07,20,15,23,26.40
2015,07,20,15,24,26.40
2015,07,20,15,25,26.40
2015,07,20,15,26,26.40
2015,07,20,15,27,26.40
2015,07,20,15,28,26.40
2015,07,20,15,29,26.40
2015,07,20,15,30,26.40
2015,07,20,15,31,26.40
2015,07,20,15,32,26.40
2015,07,20,15,33,26.40
2015,07,20,15,34,26.30
2015,07,20,15,35,26.30
2015,07,20,15,36,26.30
2015,07,20,15,37,26.40
2015,07,20,15,38,26.40
2015,07,20,15,39,26.40
2015,07,20,15,40,26.40
2015,07,20,15,41,26.30
2015,07,20,15,42,26.30
2015,07,20,15,43,26.20
2015,07,20,15,44,26.10
2015,07,20,15,45,26.10
2015,07,20,15,46,26.00
2015,07,20,15,47,26.00
2015,07,20,15,48,26.10
2015,07,20,15,49,26.20
2015,07,20,15,50,26.30
2015,07,20,15,51,26.30
2015,07,20,15,52,26.10
2015,07,20,15,53,26.00
2015,07,20,15,54,25.90
2015,07,20,15,55,25.90
2015,07,20,15,56,25.90
2015,07,20,15,57,25.80
2015,07,20,15,58,25.80
2015,07,20,15,59,25.70
2015,07,20,16,00,25.70
2015,07,20,16,01,25.60
2015,07,20,16,02,25.60
2015,07,20,16,03,25.70
2015,07,20,16,04,25.70
2015,07,20,16,05,25.60
2015,07,20,16,06,25.50
2015,07,20,16,07,25.40
2015,07,20,16,08,25.40
2015,07,20,16,09,25.40
2015,07,20,16,10,25.40
2015,07,20,16,11,25.30
2015,07,20,16,12,25.30
2015,07,20,16,13,25.30
2015,07,20,16,14,25.40
2015,07,20,16,15,25.50
2015,07,20,16,16,25.60
2015,07,20,16,17,25.60
2015,07,20,16,18,25.60
2015,07,20,16,19,25.50
2015,07,20,16,20,25.50
2015,07,20,16,21,25.60
2015,07,20,16,22,25.60
2015,07,20,16,23,25.60
2015,07,20,16,24,25.50
2015,07,20,16,25,25.50
2015,07,20,16,26,25.40
2015,07,20,16,27,25.40
2015,07,20,16,28,25.40
2015,07,20,16,29,25.30
2015,07,20,16,30,25.30
2015,07,20,16,31,25.30
2015,07,20,16,32,25.30
2015,07,20,16,33,25.20
2015,07,20,16,34,25.20
2015,07,20,16,35,25.20
2015,07,20,16,36,25.20
2015,07,20,16,37,25.20
2015,07,20,16,38,25.20
2015,07,20,16,39,25.10
2015,07,20,16,40,25.20
2015,07,20,16,41,25.20
2015,07,20,16,42,25.20
2015,07,20,16,43,25.20
2015,07,20,16,44,25.10
2015,07,20,16,45,25.10
2015,07,20,16,46,25.00
2015,07,20,16,47,24.90
2015,07,20,16,48,24.80
2015,07,20,16,49,24.60
2015,07,20,16,50,24.50
2015,07,20,16,51,24.50
2015,07,20,16,52,24.40
2015,07,20,16,53,24.40
2015,07,20,16,54,24.50
2015,07,20,16,55,24.50
2015,07,20,16,56,24.50
2015,07,20,16,57,24.40
2015,07,20,16,58,24.30
2015,07,20,16,59,24.30
2015,07,20,17,00,24.30
2015,07,20,17,01,24.40
2015,07,20,17,02,24.50
2015,07,20,17,03,24.60
2015,07,20,17,04,24.60
2015,07,20,17,05,24.60
2015,07,20,17,06,24.50
2015,07,20,17,07,24.50
2015,07,20,17,08,24.40
2015,07,20,17,09,24.30
2015,07,20,17,10,24.30
2015,07,20,17,11,24.20
2015,07,20,17,12,24.10
2015,07,20,17,13,24.10
2015,07,20,17,14,24.10
2015,07,20,17,15,24.20
2015,07,20,17,16,24.20
2015,07,20,17,17,24.30
2015,07,20,17,18,24.30
2015,07,20,17,19,24.30